Hourly Data Report for September 29, 2017

All times are specified in Local Standard Time (LST). Add 1 hour to adjust for Daylight Saving Time where and when it is observed.

POINT LEPREAU CS
NEW BRUNSWICK

45°04'23.040" N
66°26'57.090" W
6.00 m
8104201
71699
WPE

Download Data

Hourly Data (September 2017)
Hourly Data Report for September 29, 2017
Temp Definition
°C
Dew Point Temp Definition
°C
Rel Hum Definition
%
Wind Dir Definition
10's deg

Wind Spd Definition
km/h
Visibility Definition
km
Stn Press Definition
kPa
Hmdx Definition


Wind Chill Definition


Weather Definition


TIME
00:00 10.0 5.5 74 32 10   100.75     LegendNANA
01:00 9.6 4.3 69 33 11   100.76     LegendNANA
02:00 9.1 4.4 72 32 11   100.78     LegendNANA
03:00 8.7 4.4 74 32 13   100.82     LegendNANA
04:00 8.2 4.2 76 33 14   100.84     LegendNANA
05:00 7.4 4.0 79 33 8   100.88     LegendNANA
06:00 7.2 4.0 80 32 9   100.90     LegendNANA
07:00 7.7 3.9 77 34 10   100.99     LegendNANA
08:00 9.3 4.5 72 33 12   101.04     LegendNANA
09:00 10.8 4.5 65 34 13   101.08     LegendNANA
10:00 12.3 4.2 58 33 13   101.09     LegendNANA
11:00 13.1 5.0 58 33 13   101.11     LegendNANA
12:00 13.9 4.3 52 33 16   101.13     LegendNANA
13:00 14.9 4.8 51 33 14   101.12     LegendNANA
14:00 15.3 4.2 47 32 18   101.14     LegendNANA
15:00 15.8 4.6 47 33 18   101.18     LegendNANA
16:00 15.4 3.7 46 33 16   101.23     LegendNANA
17:00 13.8 4.0 52 36 11   101.32     LegendNANA
18:00 11.1 3.0 57 36 9   101.46     LegendNANA
19:00 9.0 3.3 68 33 7   101.57     LegendNANA
20:00 7.7 3.0 72 33 7   101.65     LegendNANA
21:00 7.1 3.0 75 34 8   101.70     LegendNANA
22:00 7.6 3.4 75 33 9   101.75     LegendNANA
23:00 6.6 3.1 78 34 10   101.78     LegendNANA

Notes on Data Quality.

Legend

  • E = Estimated
  • M = Missing
  • NA = Not Available
  • ‡ = Partner data that is not subject to review by the National Climate Archives
Date modified: